Showing default

QIANFAN-41, 62242

Orbit data source: Space-Track

QIANFAN-41, 62242 is a Chinese payload satellite in LEO that was launched on Thu, 05 Dec 2024 UTC via a CHANG ZHENG 6A launch vehicle from the Taiyaun Space Center, China (TSC). Payloads include a variety of satellites, spacecraft, and rockets equipped with specific instruments for various scientific and technological missions. These include communications satellites like Starlink; space stations such as the ISS; scientific satellites like the Hubble; Earth observation satellites from companies like Planet Labs, Umbra, and HawkEye 360; GPS; miniature CubeSats for education and research; and military/defense satellites.

Loading next visibility...
QIANFAN-41 details
Identifier
62242, 2024-232F
Orbit
LEO
Last TLE update12 hours ago
Origin
Flag of CNYUANX (CN / PRC)
ManufacturerSECM
MissionOperational Commercial Communications
Bus & MotorQIANFAN, Unknown motor
Mass300 kg wet, ~300 kg dry
Launch date (UTC)
2024-12-05 (2 months ago)
Launch vehicle
CHANG ZHENG 6A
Launch site
Taiyaun Space Center, China (TSC)
Object type
Payload
Rocket body
Debris
Shape & HBRBox + 1 Pan, 10 m
Radar Cross Section13.200 m², Large (>1 m²)

Expand to show TLE details & history

TLE from 12 hours ago
0 QIANFAN-41
1 62242U 24232F   25035.77787897  .00000443  00000-0  20128-3 0  9991
2 62242  88.9888  73.0726 0016478  28.6352 331.5739 14.20023517 57080
Epoch: 2025-02-04T18:40Z
Definitive object data (Epoch: 2025-02-04T18:40:08.743Z)
Latitude-0.00003°
Longitude17.85788°
Altitude817.89 km
Speed7.45 km/s
True Right ascension04h 52m 17s
True Declination0° 00' 00"
Sunlit
Object was in daylight at TLE epoch
Visualization TLE readout
Latitude59.65979°
Longitude19.51895°
Altitude825.5 km
Speed7.451 km/s
Apparent Right ascension23h 54m 29s
Apparent Declination26° 29' 00"
Sunlit
Object is in daylight
Visualization observer readout
Local Sidereal Time08:49:22
Azimuth318.804° NNW
Elevation-10.856°
Doppler factor1
Orbital elements
Apogee altitude834.089 km
Perigee altitude810.36 km
Semi-major axis7,200.362 km
Eccentricity0.0016478
Inclination88.9888°
RAAN73.0726°
Arg. of periapsis28.6352°
True anomaly331.48385°
Mean anomaly331.5739°
Eccentric anomaly331.52889°
Mean motion3.55232 °/min
BSTAR0.00020128
Orbital period101.34 mins
Loading maneuver chart data...
Loading historical data...
Loading historical data...
Loading historical data...
Loading historical data...
Loading historical data...
Loading historical data...
Loading historical data...

QIANFAN-41 Visibility forecast

Observer location: undefined°, undefined

Span
Click to sort rows by Start time (UTC) header in descending order
Start Az.
Max El. time (UTC)
Max El. Az.
Max El.
End time (UTC)
End Az.
9 mins2025-02-05 13:51:09.029Z23.403° NE2025-02-05 13:55:09.029Z74.192° E27.435°2025-02-05 14:00:09.029Z144.647° SSE
7 mins2025-02-05 15:34:09.029Z324.53° NNW2025-02-05 15:37:09.029Z274.702° WNW26.491°2025-02-05 15:41:09.029Z223.281° SW
9 mins2025-02-06 02:55:09.029Z186.326° SSW2025-02-06 02:59:09.029Z257.07° W43.785°2025-02-06 03:04:09.029Z354.685° N
|